TimeEDT,TemperatureF,Dew PointF,Humidity,Sea Level PressureIn,VisibilityMPH,Wind Direction,Wind SpeedMPH,Gust SpeedMPH,PrecipitationIn,Events,Conditions,WindDirDegrees,DateUTC
12:53 AM,30.0,21.9,72,30.24,10.0,East,5.8,-,N/A,,Clear,100,2013-04-06 04:53:00
1:53 AM,30.0,21.9,72,30.24,10.0,East,6.9,-,N/A,,Mostly Cloudy,90,2013-04-06 05:53:00
2:53 AM,30.0,21.9,72,30.25,10.0,ESE,6.9,-,N/A,,Overcast,110,2013-04-06 06:53:00
3:53 AM,30.0,21.9,72,30.25,10.0,ESE,5.8,-,N/A,,Overcast,110,2013-04-06 07:53:00
4:53 AM,30.9,21.9,69,30.24,10.0,ESE,6.9,-,N/A,,Overcast,120,2013-04-06 08:53:00
5:53 AM,32.0,19.9,61,30.24,10.0,ESE,8.1,-,N/A,,Overcast,120,2013-04-06 09:53:00
6:53 AM,32.0,19.9,61,30.25,10.0,SE,5.8,-,N/A,,Overcast,140,2013-04-06 10:53:00
7:53 AM,33.1,18.0,54,30.24,10.0,SE,11.5,-,N/A,,Overcast,130,2013-04-06 11:53:00
9:53 AM,35.1,18.0,50,30.23,10.0,SSE,11.5,-,N/A,,Overcast,160,2013-04-06 13:53:00
10:53 AM,35.1,18.0,50,30.21,10.0,SSE,10.4,-,N/A,,Overcast,160,2013-04-06 14:53:00
11:53 AM,37.9,19.0,47,30.18,10.0,SE,15.0,-,N/A,,Overcast,140,2013-04-06 15:53:00
12:53 PM,41.0,21.0,45,30.14,10.0,SSE,18.4,24.2,N/A,,Partly Cloudy,150,2013-04-06 16:53:00
1:53 PM,42.1,19.9,41,30.11,10.0,SSE,21.9,25.3,N/A,,Mostly Cloudy,150,2013-04-06 17:53:00
2:53 PM,44.1,19.9,38,30.06,10.0,SSE,12.7,23.0,N/A,,Overcast,160,2013-04-06 18:53:00
3:53 PM,46.0,19.9,35,30.02,10.0,SSE,15.0,-,N/A,,Mostly Cloudy,160,2013-04-06 19:53:00
4:53 PM,46.9,19.0,33,29.98,10.0,SSE,10.4,-,N/A,,Overcast,150,2013-04-06 20:53:00
5:53 PM,50.0,21.0,32,29.91,10.0,ESE,18.4,-,0.00,,Clear,120,2013-04-06 21:53:00
6:53 PM,50.0,19.9,31,29.86,10.0,SSE,23.0,33.4,N/A,,Clear,150,2013-04-06 22:53:00
7:53 PM,48.9,21.0,33,29.86,10.0,SSE,10.4,-,N/A,,Scattered Clouds,160,2013-04-06 23:53:00
8:53 PM,48.9,21.0,33,29.83,10.0,SSE,13.8,20.7,N/A,,Overcast,160,2013-04-07 00:53:00
9:53 PM,46.0,28.0,50,29.77,10.0,SSE,18.4,26.5,0.00,Rain,Light Rain,150,2013-04-07 01:53:00
10:53 PM,48.9,24.1,38,29.72,10.0,South,19.6,26.5,0.00,,Overcast,170,2013-04-07 02:53:00
11:53 PM,51.1,24.1,35,29.70,10.0,South,20.7,29.9,0.00,,Overcast,180,2013-04-07 03:53:00